Date String (YYYY-MM-DD hh:mm:ss) UTC,Instrument flags,Ambient pressure (hPa),Sample flow (lpm),Bypass flow (lpm),Sample temperature (°C),Ambient temperature (°C),ASC tube jacket temperature (°C),LED temperature (°C),Box temperature (°C),Sample RH (%),Span deviation,Mass concentration (μg/m³),Mass concentration (μg/m³),Mass concentration (μg/m³)
DateTimeUTC,F1_M11,P_M11,Q1_M11,Q2_M11,T1_M11,T2_M11,T3_M11,T4_M11,T5_M11,U1_M11,ZSPAN_M11,X2_M11,X0_M11,X1_M11
2023-05-18 10:00:00,,0831.0,5.01,0.00,29.9,28.3,00.0,38.3,31.5,26.5,0000.0,0005.54,0010.00,0004.67
2023-05-18 10:01:00,,0830.9,5.02,0.00,29.9,28.3,00.0,38.3,31.5,26.5,0000.0,0005.49,0009.91,0004.67
2023-05-18 10:02:00,,0830.9,4.99,0.00,29.9,28.3,00.0,38.3,31.5,26.6,0000.0,0005.50,0009.86,0004.67
2023-05-18 10:03:00,,0830.9,5.00,0.00,29.9,28.3,00.0,38.3,31.5,26.6,0000.0,0005.54,0009.87,0004.69
2023-05-18 10:04:00,,0830.9,5.01,0.00,29.9,28.3,00.0,38.3,31.5,26.6,0000.0,0005.50,0010.15,0004.70
2023-05-18 10:05:00,,0830.9,5.00,0.00,29.9,28.3,00.0,38.3,31.5,26.6,0000.0,0005.52,0010.51,0004.73
2023-05-18 10:06:00,,0830.9,4.98,0.00,29.9,28.3,00.0,38.3,31.5,26.6,0000.0,0005.53,0010.56,0004.73
2023-05-18 10:07:00,,0830.9,5.02,0.00,29.9,28.3,00.0,38.3,31.4,26.5,0000.0,0005.59,0010.65,0004.75
2023-05-18 10:08:00,,0830.9,5.01,0.00,29.9,28.2,00.0,38.3,31.4,26.6,0000.0,0005.64,0011.03,0004.77
2023-05-18 10:09:00,,0830.9,4.98,0.00,29.9,28.2,00.0,38.3,31.4,26.7,0000.0,0005.70,0010.84,0004.77
2023-05-18 10:10:00,,0830.9,5.00,0.00,29.9,28.2,00.0,38.3,31.4,26.7,0000.0,0005.72,0010.86,0004.79
2023-05-18 10:11:00,,0830.9,5.01,0.00,29.9,28.2,00.0,38.3,31.4,26.7,0000.0,0005.78,0010.94,0004.82
2023-05-18 10:12:00,,0830.9,5.00,0.00,29.9,28.2,00.0,38.3,31.4,26.6,0000.0,0005.80,0010.89,0004.85
2023-05-18 10:13:00,,0830.9,5.00,0.00,29.9,28.2,00.0,38.3,31.4,26.6,0000.0,0005.81,0010.89,0004.87
2023-05-18 10:14:00,,0830.9,4.99,0.00,29.9,28.2,00.0,38.3,31.4,26.5,0000.0,0005.80,0010.85,0004.88
2023-05-18 10:15:00,,0830.9,5.01,0.00,29.8,28.2,00.0,38.3,31.4,26.5,0000.0,0005.87,0011.16,0004.90
2023-05-18 10:16:00,,0830.9,4.99,0.00,29.8,28.1,00.0,38.3,31.4,26.5,0000.0,0005.92,0011.13,0004.92
2023-05-18 10:17:00,,0830.9,4.99,0.00,29.8,28.1,00.0,38.2,31.4,26.5,0000.0,0005.89,0011.11,0004.95
2023-05-18 10:18:00,,0830.9,5.01,0.00,29.8,28.1,00.0,38.2,31.4,26.5,0000.0,0005.85,0011.04,0004.97
2023-05-18 10:19:00,,0830.9,5.00,0.00,29.8,28.1,00.0,38.2,31.4,26.5,0001.9,0005.78,0010.47,0004.99
2023-05-18 10:20:00,,0830.9,4.99,0.00,29.8,28.1,00.0,38.2,31.4,26.5,0004.8,0005.74,0010.15,0005.01
2023-05-18 10:21:00,,0830.9,5.00,0.00,29.8,28.1,00.0,38.2,31.4,26.5,0004.7,0005.76,0010.20,0005.00
2023-05-18 10:22:00,,0830.9,4.99,0.00,29.8,28.1,00.0,38.2,31.4,26.5,0004.7,0005.73,0010.10,0005.00
2023-05-18 10:23:00,,0830.9,4.99,0.00,29.8,28.1,00.0,38.2,31.3,26.5,0004.2,0005.77,0010.19,0005.00
2023-05-18 10:24:00,,0830.9,5.00,0.00,29.8,28.1,00.0,38.2,31.3,26.5,0003.9,0005.80,0010.40,0005.01
2023-05-18 10:25:00,,0830.9,5.00,0.00,29.8,28.1,00.0,38.2,31.3,26.4,0003.6,0005.84,0010.56,0005.02
2023-05-18 10:26:00,,0830.8,5.00,0.00,29.8,28.1,00.0,38.2,31.4,26.4,0003.2,0005.82,0010.10,0005.02
2023-05-18 10:27:00,,0830.8,5.00,0.00,29.8,28.1,00.0,38.2,31.3,26.4,0003.1,0005.76,0010.26,0005.01
2023-05-18 10:28:00,,0830.8,4.99,0.00,29.8,28.1,00.0,38.2,31.3,26.4,0003.3,0005.75,0010.19,0005.00
2023-05-18 10:29:00,,0830.8,5.00,0.00,29.8,28.1,00.0,38.2,31.3,26.3,0003.1,0005.82,0010.36,0005.00
2023-05-18 10:30:00,,0830.8,5.02,0.00,29.8,28.1,00.0,38.2,31.3,26.3,0002.1,0005.88,0010.60,0004.98
2023-05-18 10:31:00,,0830.7,4.98,0.00,29.8,28.1,00.0,38.2,31.4,26.3,0000.0,0005.88,0010.79,0004.96
2023-05-18 10:32:00,,0830.7,4.99,0.00,29.8,28.1,00.0,38.2,31.4,26.2,0000.0,0005.88,0010.85,0004.96
2023-05-18 10:33:00,,0830.7,5.00,0.00,29.8,28.1,00.0,38.2,31.4,26.2,0000.0,0005.92,0010.96,0004.95
2023-05-18 10:34:00,,0830.7,5.01,0.00,29.8,28.1,00.0,38.2,31.4,26.2,0000.0,0005.92,0010.98,0004.94
2023-05-18 10:35:00,,0830.7,4.99,0.00,29.8,28.1,00.0,38.2,31.4,26.1,0000.0,0005.90,0011.03,0004.91
2023-05-18 10:36:00,,0830.7,5.00,0.00,29.8,28.1,00.0,38.2,31.4,26.1,0001.1,0005.84,0011.47,0004.89
2023-05-18 10:37:00,,0830.7,5.01,0.00,29.8,28.1,00.0,38.2,31.4,26.1,0000.0,0005.82,0012.02,0004.88
2023-05-18 10:38:00,,0830.7,4.99,0.00,29.8,28.1,00.0,38.2,31.3,26.1,0002.2,0005.85,0011.42,0004.89
2023-05-18 10:39:00,,0830.7,4.99,0.00,29.8,28.1,00.0,38.2,31.3,26.0,0000.3,0005.82,0011.34,0004.88
2023-05-18 10:40:00,,0830.8,5.01,0.00,29.8,28.2,00.0,38.2,31.4,26.0,0002.1,0005.77,0011.28,0004.87
2023-05-18 10:41:00,,0830.8,4.99,0.00,29.8,28.1,00.0,38.2,31.4,26.0,0003.3,0005.73,0011.23,0004.87
2023-05-18 10:42:00,,0830.9,4.99,0.00,29.8,28.1,00.0,38.2,31.4,26.0,0002.9,0005.74,0011.76,0004.89
2023-05-18 10:43:00,,0830.9,5.01,0.00,29.8,28.1,00.0,38.2,31.4,26.0,0003.5,0005.71,0011.75,0004.89
2023-05-18 10:44:00,,0830.8,5.01,0.00,29.8,28.1,00.0,38.2,31.4,26.0,0003.9,0005.70,0012.14,0004.88
2023-05-18 10:45:00,,0830.8,5.00,0.00,29.8,28.1,00.0,38.2,31.3,26.1,0004.0,0005.71,0012.46,0004.89
2023-05-18 10:46:00,,0830.8,5.00,0.00,29.8,28.1,00.0,38.2,31.3,26.1,0003.8,0005.71,0012.24,0004.92
2023-05-18 10:47:00,,0830.9,4.99,0.00,29.8,28.1,00.0,38.2,31.4,26.1,0001.8,0005.74,0011.76,0004.94
2023-05-18 10:48:00,,0830.8,5.00,0.00,29.8,28.1,00.0,38.2,31.3,26.1,0001.6,0005.77,0011.14,0004.95
2023-05-18 10:49:00,,0830.8,5.01,0.00,29.8,28.1,00.0,38.2,31.3,26.1,0001.0,0005.77,0011.11,0004.95
2023-05-18 10:50:00,,0830.9,4.99,0.00,29.8,28.1,00.0,38.2,31.3,26.1,0003.3,0005.85,0011.28,0004.96
2023-05-18 10:51:00,,0830.9,4.99,0.00,29.8,28.1,00.0,38.2,31.3,26.1,0001.6,0005.90,0011.24,0005.00
2023-05-18 10:52:00,,0830.9,5.01,0.00,29.8,28.1,00.0,38.2,31.3,26.2,0003.2,0005.94,0011.65,0005.03
2023-05-18 10:53:00,,0830.9,5.01,0.00,29.8,28.0,00.0,38.2,31.3,26.2,0003.5,0005.96,0011.49,0005.04
2023-05-18 10:54:00,,0830.9,4.99,0.00,29.8,28.0,00.0,38.2,31.3,26.1,0002.6,0005.94,0011.29,0005.05
2023-05-18 10:55:00,,0830.9,4.99,0.00,29.8,28.0,00.0,38.2,31.3,26.1,0002.2,0005.91,0010.86,0005.06
2023-05-18 10:56:00,,0830.9,5.01,0.00,29.7,28.0,00.0,38.2,31.3,26.1,0002.3,0005.89,0010.54,0005.07
2023-05-18 10:57:00,,0830.9,5.01,0.00,29.7,28.0,00.0,38.2,31.3,26.1,0003.0,0005.91,0011.19,0005.09
2023-05-18 10:58:00,,0830.9,4.99,0.00,29.7,28.0,00.0,38.1,31.3,26.1,0002.9,0005.94,0011.35,0005.11
2023-05-18 10:59:00,,0830.9,5.01,0.00,29.7,28.0,00.0,38.1,31.3,26.1,0003.1,0005.94,0011.48,0005.12
